Location: Écuvilly
(49.6505°N, 2.9206°E)
Time: 05:48:03
(UTC+00:00)

IRS-P3 - Pass Details

Date: 17 November 2025
Orbit: 810 x 816 km, 99.0° (Epoch: 17 December)

Event Time Altitude Azimuth Distance (km) Brightness Sun altitude
Rises 16:50:35 0° 144° (SE) 3,332 7.1 -7.8°
Reaches altitude 10° 16:52:58 10° 139° (SE) 2,404 6.4 -8.2°
Maximum altitude 16:58:03 48° 66° (ENE) 1,067 4.4 -9.0°
Drops below altitude 10° 17:03:09 10° 354° (N) 2,417 6.5 -9.8°
Sets 17:05:34 0° 349° (N) 3,352 7.2 -10.1°
